• In Belarus
  • List of Countries
  • For 7 days
  • Water Temperature
  • Satellite Maps
  • Weather Map
  • Weather Widgets
  • user-avatar
    Login

    Hourly Weather Zaroschenskiy

    Today, 20 July, Friday

    Time Temperature Precipitation Wind Pressure Humidity
    00:00 +20°C° 0 mm 1 mps 736 mmHg 96%
    01:00 +20°C° 0 mm 1 mps 736 mmHg 96%
    02:00 +19°C° 0 mm 1 mps 736 mmHg 96%
    03:00 +20°C° 0 mm 1 mps 736 mmHg 96%
    04:00 +18°C° 0 mm 0 mps 737 mmHg 96%
    05:00 +18°C° 0 mm 0 mps 737 mmHg 96%
    06:00 +21°C° 0 mm 1 mps 737 mmHg 92%
    07:00 +23°C° 0 mm 1 mps 737 mmHg 88%
    08:00 +24°C° 0 mm 1 mps 737 mmHg 85%
    09:00 +25°C° 0.1 mm 1 mps 737 mmHg 81%
    10:00 +26°C° 0.1 mm 1 mps 737 mmHg 78%
    11:00 +27°C° 0.1 mm 1 mps 737 mmHg 74%
    12:00 +27°C° 0.3 mm 2 mps 737 mmHg 73%
    13:00 +27°C° 0.3 mm 2 mps 737 mmHg 72%
    14:00 +28°C° 0.3 mm 2 mps 737 mmHg 71%
    15:00 +28°C° 0.2 mm 2 mps 737 mmHg 73%
    16:00 +28°C° 0.2 mm 2 mps 737 mmHg 74%
    17:00 +28°C° 0.2 mm 1 mps 737 mmHg 76%
    18:00 +26°C° 0.2 mm 1 mps 738 mmHg 80%
    19:00 +25°C° 0.2 mm 2 mps 738 mmHg 84%
    20:00 +23°C° 0.2 mm 2 mps 738 mmHg 88%
    21:00 +23°C° 0.1 mm 1 mps 738 mmHg 89%
    22:00 +22°C° 0.1 mm 1 mps 738 mmHg 90%
    23:00 +22°C° 0.1 mm 1 mps 738 mmHg 91%

    Tomorrow, 21 July, Saturday

    Time Temperature Precipitation Wind Pressure Humidity
    00:00 +22°C° 0.1 mm 1 mps 738 mmHg 92%
    01:00 +21°C° 0.1 mm 1 mps 738 mmHg 92%
    02:00 +21°C° 0.1 mm 1 mps 738 mmHg 93%
    03:00 +21°C° 0 mm 1 mps 739 mmHg 93%
    04:00 +21°C° 0 mm 1 mps 739 mmHg 93%
    05:00 +21°C° 0 mm 1 mps 739 mmHg 93%
    06:00 +23°C° 0.2 mm 1 mps 739 mmHg 89%
    07:00 +24°C° 0.2 mm 1 mps 739 mmHg 86%
    08:00 +25°C° 0.2 mm 2 mps 739 mmHg 82%
    09:00 +26°C° 0.4 mm 1 mps 739 mmHg 78%
    10:00 +27°C° 0.4 mm 1 mps 739 mmHg 74%
    11:00 +28°C° 0.4 mm 1 mps 739 mmHg 70%
    12:00 +28°C° 0.1 mm 1 mps 739 mmHg 67%
    13:00 +29°C° 0.1 mm 1 mps 739 mmHg 64%
    14:00 +30°C° 0.1 mm 1 mps 739 mmHg 61%
    15:00 +30°C° 0.3 mm 1 mps 739 mmHg 63%
    16:00 +29°C° 0.3 mm 1 mps 739 mmHg 65%
    17:00 +29°C° 0.3 mm 1 mps 739 mmHg 67%
    18:00 +28°C° 0.1 mm 1 mps 739 mmHg 72%
    19:00 +26°C° 0.1 mm 1 mps 739 mmHg 77%
    20:00 +24°C° 0.1 mm 1 mps 739 mmHg 82%
    21:00 +24°C° 0.2 mm 1 mps 739 mmHg 85%
    22:00 +23°C° 0.2 mm 1 mps 738 mmHg 87%
    23:00 +22°C° 0.2 mm 1 mps 738 mmHg 89%

    Day after tomorrow, 22 July, Sunday

    Time Temperature Precipitation Wind Pressure Humidity
    00:00 +22°C° 0.6 mm 1 mps 738 mmHg 90%
    01:00 +22°C° 0.6 mm 1 mps 739 mmHg 91%
    02:00 +21°C° 0.6 mm 1 mps 739 mmHg 92%
    03:00 +22°C° 0.1 mm 1 mps 739 mmHg 92%
    04:00 +22°C° 0.1 mm 1 mps 739 mmHg 92%
    05:00 +22°C° 0.1 mm 1 mps 739 mmHg 92%
    06:00 +23°C° 0 mm 1 mps 739 mmHg 88%
    07:00 +25°C° 0 mm 2 mps 739 mmHg 84%
    08:00 +26°C° 0 mm 2 mps 739 mmHg 81%
    09:00 +27°C° 0.1 mm 2 mps 739 mmHg 76%
    10:00 +28°C° 0.1 mm 2 mps 739 mmHg 72%
    11:00 +29°C° 0.1 mm 2 mps 739 mmHg 67%
    12:00 +29°C° 0.6 mm 2 mps 738 mmHg 66%
    13:00 +30°C° 0.6 mm 2 mps 738 mmHg 65%
    14:00 +30°C° 0.6 mm 2 mps 738 mmHg 65%
    15:00 +30°C° 0.4 mm 2 mps 738 mmHg 69%
    16:00 +29°C° 0.4 mm 2 mps 738 mmHg 74%
    17:00 +28°C° 0.4 mm 2 mps 738 mmHg 78%
    18:00 +27°C° 0.3 mm 2 mps 738 mmHg 82%
    19:00 +26°C° 0.3 mm 2 mps 738 mmHg 86%
    20:00 +24°C° 0.3 mm 2 mps 738 mmHg 90%
    21:00 +24°C° 0.3 mm 2 mps 738 mmHg 91%
    22:00 +23°C° 0.3 mm 2 mps 738 mmHg 93%
    23:00 +23°C° 0.3 mm 2 mps 738 mmHg 95%

    23 July, Monday

    Time Temperature Precipitation Wind Pressure Humidity
    00:00 +21°C° 0 mm 2 mps 738 mmHg 96%
    01:00 +21°C° 0 mm 2 mps 738 mmHg 96%
    02:00 +21°C° 0 mm 2 mps 738 mmHg 97%
    03:00 +21°C° 0 mm 2 mps 738 mmHg 97%
    04:00 +21°C° 0 mm 2 mps 739 mmHg 97%
    05:00 +21°C° 0 mm 2 mps 739 mmHg 97%
    06:00 +21°C° 0 mm 2 mps 739 mmHg 95%
    07:00 +21°C° 0 mm 2 mps 739 mmHg 94%
    08:00 +22°C° 0 mm 3 mps 739 mmHg 92%
    09:00 +22°C° 0 mm 3 mps 739 mmHg 90%
    10:00 +22°C° 0 mm 3 mps 739 mmHg 89%
    11:00 +24°C° 0 mm 3 mps 739 mmHg 87%
    12:00 +24°C° 0 mm 3 mps 739 mmHg 85%
    13:00 +25°C° 0 mm 3 mps 739 mmHg 83%
    14:00 +25°C° 0 mm 3 mps 739 mmHg 81%
    15:00 +25°C° 0 mm 2 mps 739 mmHg 81%
    16:00 +25°C° 0 mm 2 mps 739 mmHg 81%
    17:00 +25°C° 0 mm 1 mps 739 mmHg 81%
    18:00 +24°C° 0 mm 1 mps 740 mmHg 84%
    19:00 +23°C° 0 mm 2 mps 740 mmHg 86%
    20:00 +23°C° 0 mm 2 mps 740 mmHg 89%
    21:00 +21°C° 0 mm 2 mps 740 mmHg 90%
    22:00 +21°C° 0 mm 2 mps 740 mmHg 91%
    23:00 +21°C° 0 mm 2 mps 741 mmHg 93%

    24 July, Tuesday

    Time Temperature Precipitation Wind Pressure Humidity
    00:00 +20°C° 0 mm 2 mps 741 mmHg 94%
    01:00 +20°C° 0 mm 2 mps 741 mmHg 94%
    02:00 +19°C° 0 mm 2 mps 741 mmHg 95%
    03:00 +20°C° 0 mm 2 mps 741 mmHg 95%
    04:00 +20°C° 0 mm 2 mps 741 mmHg 96%
    05:00 +20°C° 0 mm 2 mps 741 mmHg 96%
    06:00 +21°C° 0 mm 2 mps 742 mmHg 92%
    07:00 +22°C° 0 mm 3 mps 742 mmHg 87%
    08:00 +25°C° 0 mm 3 mps 742 mmHg 83%
    09:00 +26°C° 0 mm 3 mps 742 mmHg 78%
    10:00 +27°C° 0 mm 3 mps 742 mmHg 74%
    11:00 +28°C° 0 mm 3 mps 743 mmHg 69%
    12:00 +28°C° 0.1 mm 3 mps 743 mmHg 68%
    13:00 +29°C° 0.1 mm 3 mps 743 mmHg 66%
    14:00 +29°C° 0.1 mm 3 mps 743 mmHg 65%
    15:00 +29°C° 0.2 mm 3 mps 743 mmHg 67%
    16:00 +29°C° 0.2 mm 2 mps 743 mmHg 70%
    17:00 +28°C° 0.2 mm 2 mps 743 mmHg 72%
    18:00 +27°C° 0.4 mm 2 mps 743 mmHg 77%
    19:00 +25°C° 0.4 mm 1 mps 743 mmHg 82%
    20:00 +23°C° 0.4 mm 1 mps 743 mmHg 87%
    21:00 +23°C° 0 mm 1 mps 743 mmHg 88%
    22:00 +21°C° 0 mm 2 mps 743 mmHg 90%
    23:00 +21°C° 0 mm 2 mps 743 mmHg 91%

    25 July, Wednesday

    Time Temperature Precipitation Wind Pressure Humidity
    00:00 +20°C° 0 mm 2 mps 744 mmHg 92%
    01:00 +20°C° 0 mm 2 mps 744 mmHg 92%
    02:00 +20°C° 0 mm 2 mps 744 mmHg 93%
    03:00 +20°C° 0 mm 2 mps 744 mmHg 93%
    04:00 +20°C° 0 mm 2 mps 744 mmHg 93%
    05:00 +20°C° 0 mm 2 mps 745 mmHg 93%
    06:00 +22°C° 0.3 mm 3 mps 745 mmHg 89%
    07:00 +24°C° 0.3 mm 3 mps 745 mmHg 84%
    08:00 +26°C° 0.3 mm 3 mps 745 mmHg 79%
    09:00 +27°C° 0.9 mm 4 mps 745 mmHg 76%
    10:00 +27°C° 0.9 mm 4 mps 745 mmHg 72%
    11:00 +28°C° 0.9 mm 5 mps 745 mmHg 69%
    12:00 +28°C° 0.6 mm 5 mps 745 mmHg 69%
    13:00 +28°C° 0.6 mm 5 mps 745 mmHg 69%
    14:00 +28°C° 0.6 mm 5 mps 745 mmHg 70%
    15:00 +27°C° 0.3 mm 5 mps 745 mmHg 73%
    16:00 +26°C° 0.3 mm 5 mps 745 mmHg 76%
    17:00 +26°C° 0.3 mm 5 mps 745 mmHg 79%
    18:00 +23°C° 0 mm 4 mps 746 mmHg 83%
    19:00 +22°C° 0 mm 4 mps 746 mmHg 86%
    20:00 +21°C° 0 mm 3 mps 746 mmHg 89%
    21:00 +20°C° 0 mm 3 mps 746 mmHg 91%
    22:00 +19°C° 0 mm 3 mps 746 mmHg 93%
    23:00 +19°C° 0 mm 3 mps 746 mmHg 95%
    Show more